| time (UTC) | temp F | wind direction | speed MPH | gust MPH | rain 1hr in | rain 24hr in | rain mn in | humidity % | barometer mb |
| 20260507141549 | 49 | 289 | 5.0 | 10.0 | 0.00 | 0.09 | 0.00 | 62 | 1011.7 |
| 20260507140035 | 48 | 225 | 4.0 | 8.0 | 0.00 | 0.09 | 0.00 | 68 | 1011.8 |
| 20260507134533 | 47 | 10 | 4.0 | 6.0 | 0.00 | 0.13 | 0.00 | 71 | 1011.9 |
| 20260507133040 | 46 | 9 | 3.0 | 10.0 | 0.00 | 0.13 | 0.00 | 72 | 1012.0 |
| 20260507131522 | 45 | 227 | 3.0 | 7.0 | 0.00 | 0.13 | 0.00 | 75 | 1012.0 |
| 20260507130018 | 44 | 355 | 4.0 | 9.0 | 0.00 | 0.13 | 0.00 | 78 | 1012.0 |
| 20260507124514 | 42 | 284 | 3.0 | 8.0 | 0.00 | 0.21 | 0.00 | 83 | 1012.1 |
| 20260507123014 | 40 | 213 | 3.0 | 5.0 | 0.00 | 0.21 | 0.00 | 87 | 1011.8 |
| 20260507121512 | 40 | 174 | 0.0 | 4.0 | 0.00 | 0.21 | 0.00 | 89 | 1011.9 |
| 20260507120010 | 39 | 360 | 1.0 | 5.0 | 0.00 | 0.21 | 0.00 | 92 | 1012.1 |
| 20260507114507 | 37 | 275 | 0.0 | 0.0 | 0.00 | 0.23 | 0.00 | 95 | 1012.1 |
| 20260507113011 | 36 | 184 | 0.0 | 0.0 | 0.00 | 0.23 | 0.00 | 95 | 1012.0 |
| 20260507111504 | 35 | 263 | 0.0 | 2.0 | 0.00 | 0.23 | 0.00 | 95 | 1011.9 |
| 20260507110001 | 35 | 319 | 0.0 | 1.0 | 0.00 | 0.23 | 0.00 | 94 | 1011.7 |
| 20260507104604 | 34 | 319 | 0.0 | 0.0 | 0.00 | 0.27 | 0.00 | 94 | 1011.5 |
| 20260507103058 | 34 | 320 | 0.0 | 0.0 | 0.00 | 0.27 | 0.00 | 94 | 1011.4 |
| 20260507101556 | 34 | 320 | 0.0 | 0.0 | 0.00 | 0.27 | 0.00 | 93 | 1011.3 |
| 20260507100055 | 34 | 320 | 0.0 | 0.0 | 0.00 | 0.27 | 0.00 | 90 | 1011.1 |
| 20260507094558 | 35 | 320 | 0.0 | 0.0 | 0.00 | 0.28 | 0.00 | 90 | 1010.9 |
| 20260507093048 | 36 | 320 | 0.0 | 0.0 | 0.00 | 0.28 | 0.00 | 88 | 1011.2 |
| 20260507091546 | 37 | 320 | 0.0 | 5.0 | 0.00 | 0.28 | 0.00 | 87 | 1011.2 |
| 20260507090045 | 37 | 15 | 3.0 | 5.0 | 0.00 | 0.28 | 0.00 | 86 | 1011.4 |
| 20260507084541 | 38 | 5 | 3.0 | 6.0 | 0.00 | 0.28 | 0.00 | 85 | 1011.3 |
| 20260507083037 | 39 | 355 | 4.0 | 9.0 | 0.00 | 0.28 | 0.00 | 84 | 1011.3 |
| 20260507081539 | 40 | 360 | 4.0 | 9.0 | 0.00 | 0.28 | 0.00 | 83 | 1011.3 |
| 20260507080033 | 40 | 349 | 4.0 | 10.0 | 0.00 | 0.28 | 0.00 | 83 | 1011.4 |
| 20260507074532 | 40 | 347 | 5.0 | 11.0 | 0.00 | 0.28 | 0.00 | 83 | 1011.2 |
| 20260507073031 | 40 | 20 | 3.0 | 8.0 | 0.00 | 0.28 | 0.00 | 84 | 1011.2 |
| 20260507071529 | 40 | 46 | 3.0 | 5.0 | 0.00 | 0.28 | 0.00 | 85 | 1011.1 |
| 20260507070039 | 41 | 317 | 2.0 | 8.0 | 0.00 | 0.28 | 0.00 | 84 | 1011.3 |
| 20260507064524 | 41 | 23 | 3.0 | 10.0 | 0.00 | 0.28 | 0.00 | 83 | 1011.4 |
| 20260507063021 | 41 | 17 | 3.0 | 11.0 | 0.00 | 0.28 | 0.00 | 82 | 1011.3 |
| 20260507061522 | 42 | 327 | 6.0 | 13.0 | 0.00 | 0.28 | 0.00 | 82 | 1011.3 |
| 20260507060020 | 42 | 26 | 6.0 | 14.0 | 0.00 | 0.28 | 0.00 | 88 | 1011.2 |
| 20260507054515 | 42 | 360 | 3.0 | 10.0 | 0.00 | 0.28 | 0.00 | 88 | 1011.0 |
| 20260507053013 | 42 | 267 | 3.0 | 6.0 | 0.00 | 0.28 | 0.00 | 87 | 1010.8 |
| 20260507051514 | 42 | 282 | 2.0 | 7.0 | 0.00 | 0.28 | 0.00 | 88 | 1011.0 |
| 20260507050020 | 43 | 267 | 3.0 | 9.0 | 0.00 | 0.28 | 0.00 | 87 | 1011.2 |
| 20260507044506 | 43 | 288 | 1.0 | 7.0 | 0.00 | 0.28 | 0.00 | 87 | 1011.1 |
| 20260507043002 | 44 | 264 | 3.0 | 9.0 | 0.00 | 0.28 | 0.00 | 88 | 1011.0 |
| 20260507041558 | 44 | 271 | 3.0 | 7.0 | 0.00 | 0.28 | 0.00 | 92 | 1010.9 |
| 20260507040101 | 44 | 238 | 2.0 | 6.0 | 0.00 | 0.28 | 0.00 | 93 | 1010.7 |
| 20260507034601 | 44 | 229 | 1.0 | 5.0 | 0.00 | 0.28 | 0.28 | 91 | 1010.4 |
| 20260507033107 | 44 | 255 | 3.0 | 10.0 | 0.00 | 0.28 | 0.28 | 91 | 1010.5 |
| 20260507031601 | 44 | 303 | 1.0 | 9.0 | 0.00 | 0.28 | 0.28 | 93 | 1010.2 |
| 20260507030107 | 44 | 360 | 4.0 | 10.0 | 0.00 | 0.28 | 0.28 | 95 | 1010.5 |
| 20260507024607 | 44 | 255 | 0.0 | 3.0 | 0.00 | 0.28 | 0.28 | 95 | 1010.4 |
| 20260507023051 | 44 | 227 | 1.0 | 4.0 | 0.00 | 0.28 | 0.28 | 95 | 1010.8 |
| 20260507021555 | 44 | 235 | 0.0 | 0.0 | 0.00 | 0.28 | 0.28 | 95 | 1010.2 |
| 20260507020058 | 44 | 217 | 0.0 | 3.0 | 0.00 | 0.28 | 0.28 | 95 | 1010.4 |
| 20260507014556 | 44 | 267 | 1.0 | 4.0 | 0.00 | 0.28 | 0.28 | 95 | 1010.7 |
| 20260507013053 | 44 | 275 | 0.0 | 3.0 | 0.00 | 0.28 | 0.28 | 94 | 1010.4 |
| 20260507011549 | 44 | 285 | 0.0 | 0.0 | 0.00 | 0.28 | 0.28 | 94 | 1010.5 |
| 20260507010046 | 44 | 267 | 0.0 | 4.0 | 0.00 | 0.28 | 0.28 | 93 | 1010.4 |
| 20260507004543 | 45 | 312 | 0.0 | 4.0 | 0.00 | 0.28 | 0.28 | 93 | 1010.2 |
| 20260507003041 | 45 | 316 | 1.0 | 3.0 | 0.00 | 0.28 | 0.28 | 94 | 1010.0 |
| 20260507001540 | 44 | 317 | 0.0 | 4.0 | 0.00 | 0.28 | 0.28 | 93 | 1009.7 |
| 20260507000039 | 45 | 335 | 1.0 | 4.0 | 0.00 | 0.28 | 0.28 | 93 | 1009.7 |
| 20260506234550 | 45 | 328 | 2.0 | 5.0 | 0.00 | 0.28 | 0.28 | 93 | 1009.5 |
| 20260506233046 | 45 | 300 | 2.0 | 4.0 | 0.00 | 0.28 | 0.28 | 93 | 1009.5 |
| 20260506231536 | 45 | 335 | 0.0 | 3.0 | 0.00 | 0.28 | 0.28 | 93 | 1009.2 |
| 20260506230034 | 45 | 329 | 2.0 | 4.0 | 0.00 | 0.28 | 0.28 | 94 | 1009.3 |
| 20260506224534 | 44 | 255 | 0.0 | 3.0 | 0.00 | 0.28 | 0.28 | 94 | 1009.1 |
| 20260506223032 | 44 | 327 | 4.0 | 6.0 | 0.00 | 0.28 | 0.28 | 94 | 1009.0 |
| 20260506221532 | 44 | 360 | 4.0 | 8.0 | 0.00 | 0.28 | 0.28 | 94 | 1009.0 |
| 20260506220030 | 45 | 13 | 7.0 | 13.0 | 0.00 | 0.28 | 0.28 | 94 | 1008.5 |
| 20260506214528 | 45 | 20 | 6.0 | 13.0 | 0.00 | 0.28 | 0.28 | 94 | 1008.4 |
| 20260506213028 | 45 | 347 | 5.0 | 10.0 | 0.00 | 0.28 | 0.28 | 95 | 1008.4 |
| 20260506211526 | 45 | 298 | 3.0 | 10.0 | 0.00 | 0.28 | 0.28 | 95 | 1008.3 |
| 20260506210028 | 45 | 360 | 1.0 | 9.0 | 0.00 | 0.28 | 0.28 | 95 | 1008.0 |
| 20260506204523 | 45 | 290 | 5.0 | 15.0 | 0.00 | 0.28 | 0.28 | 95 | 1008.0 |
| 20260506203028 | 45 | 325 | 4.0 | 11.0 | 0.00 | 0.28 | 0.28 | 95 | 1007.6 |
| 20260506201520 | 45 | 355 | 5.0 | 11.0 | 0.00 | 0.28 | 0.28 | 95 | 1007.7 |
| 20260506200019 | 45 | 16 | 7.0 | 12.0 | 0.00 | 0.28 | 0.28 | 95 | 1007.3 |
| 20260506194616 | 45 | 30 | 8.0 | 12.0 | 0.01 | 0.32 | 0.28 | 95 | 1007.0 |
| 20260506193015 | 45 | 11 | 6.0 | 14.0 | 0.02 | 0.32 | 0.28 | 95 | 1006.7 |
| 20260506191515 | 45 | 5 | 8.0 | 13.0 | 0.02 | 0.32 | 0.28 | 95 | 1006.8 |
| 20260506190012 | 45 | 20 | 9.0 | 16.0 | 0.02 | 0.32 | 0.28 | 95 | 1006.7 |
| 20260506184510 | 45 | 343 | 5.0 | 15.0 | 0.01 | 0.31 | 0.27 | 95 | 1006.7 |
| 20260506183011 | 45 | 347 | 6.0 | 12.0 | 0.00 | 0.30 | 0.26 | 95 | 1006.4 |
| 20260506181508 | 46 | 327 | 2.0 | 8.0 | 0.00 | 0.30 | 0.26 | 96 | 1006.0 |
| 20260506180012 | 45 | 12 | 2.0 | 9.0 | 0.01 | 0.30 | 0.26 | 95 | 1005.8 |
| 20260506174507 | 45 | 342 | 3.0 | 5.0 | 0.01 | 0.30 | 0.26 | 96 | 1005.8 |
| 20260506173016 | 45 | 300 | 4.0 | 12.0 | 0.02 | 0.30 | 0.26 | 95 | 1005.6 |
| 20260506171506 | 45 | 279 | 4.0 | 10.0 | 0.02 | 0.30 | 0.26 | 95 | 1005.4 |
| 20260506170005 | 45 | 323 | 3.0 | 10.0 | 0.02 | 0.28 | 0.25 | 95 | 1005.5 |
| 20260506164504 | 44 | 279 | 4.0 | 10.0 | 0.02 | 0.28 | 0.25 | 95 | 1005.4 |
| 20260506163004 | 44 | 345 | 2.0 | 10.0 | 0.01 | 0.28 | 0.24 | 95 | 1005.3 |
| 20260506161503 | 45 | 307 | 4.0 | 9.0 | 0.03 | 0.28 | 0.24 | 95 | 1005.2 |
| 20260506160003 | 45 | 355 | 2.0 | 3.0 | 0.03 | 0.27 | 0.23 | 94 | 1004.9 |
| 20260506154502 | 45 | 24 | 2.0 | 6.0 | 0.03 | 0.27 | 0.23 | 95 | 1004.7 |
| 20260506153000 | 45 | 216 | 1.0 | 4.0 | 0.03 | 0.27 | 0.23 | 95 | 1004.6 |
| 20260506151603 | 45 | 360 | 4.0 | 15.0 | 0.01 | 0.25 | 0.21 | 93 | 1004.7 |
| 20260506150056 | 47 | 331 | 9.0 | 15.0 | 0.01 | 0.24 | 0.20 | 90 | 1004.7 |
| 20260506144553 | 50 | 334 | 2.0 | 5.0 | 0.02 | 0.24 | 0.20 | 92 | 1004.3 |
| 20260506143053 | 51 | 317 | 2.0 | 5.0 | 0.02 | 0.24 | 0.20 | 92 | 1004.1 |